Regional Weather Roundup
Issued by NWS

Home | Current Version | Previous Version | Text Only | Print | Product List | Glossary On
Versions: 1 2 3 4 5 6 7 8 9 10 11 12 13 14 15 16 17 18 19 20 21 22 23 24 25 26 27 28 29 30 31 32 33 34 35 36 37 38 39 40 41 42 43 44 45 46 47 48 49 50
000
ASUS43 KMKX 171121
RWRWI

WISCONSIN REGIONAL WEATHER ROUNDUP
NATIONAL WEATHER SERVICE MILWAUKEE/SULLIVAN WI
600 AM CDT WED SEP 17 2014

NOTE: "FAIR" INDICATES FEW OR NO CLOUDS BELOW 12,000 FEET WITH NO
SIGNIFICANT WEATHER AND/OR OBSTRUCTIONS TO VISIBILITY.

WIZ001-002-006>008-014>016-023>028-171200-
NORTHWEST WISCONSIN

CITY           SKY/WX    TMP DP  RH WIND       PRES   REMARKS
SUPERIOR ARPT  PTCLDY    39  39 100 CALM      29.93S
ASHLAND        PTCLDY    42  40  92 SW5       29.94S
HAYWARD        CLEAR     36  35  96 CALM      29.95F
SIREN          CLOUDY    46  44  90 CALM      29.94F
RICE LAKE      MOCLDY    43  42  97 CALM      29.98S
LADYSMITH      PTCLDY    41  40  95 CALM      29.98F
EAU CLAIRE     CLOUDY    44  42  93 CALM      29.97S
MENOMONIE      CLOUDY    47  46  95 CALM      29.97F
NEW RICHMOND   CLOUDY    51  46  84 CALM      29.96S
OSCEOLA        CLOUDY    52  50  92 S5        29.98S
$$

WIZ003>005-009-010-017-018-171200-
NORTH CENTRAL WISCONSIN

CITY           SKY/WX    TMP DP  RH WIND       PRES   REMARKS
WOODRUFF       CLEAR     41  39  92 SW3       29.96S
RHINELANDER    CLEAR     44  41  89 SW6       29.98S
EAGLE RIVER    PTCLDY    38  38  99 CALM      29.96S FOG
LAND O LAKES   PTCLDY    37  37  99 CALM      29.97R FOG
PHILLIPS       CLEAR     40  39  96 CALM      29.96S
TOMAHAWK       CLEAR     33  32  96 CALM      29.98S
MEDFORD        CLEAR     37  37  99 S3        29.98S FOG
MERRILL        MOCLDY    33  33  99 CALM      29.99S
$$

WIZ029-030-035-036-043>047-171200-
CENTRAL WISCONSIN

CITY           SKY/WX    TMP DP  RH WIND       PRES   REMARKS
WAUSAU         CLEAR     40  39  97 E6        29.99S
MOSINEE        CLEAR     39  39 100 W3        30.01S
MARSHFIELD     PTCLDY    42  40  92 S3        29.99S
STEVENS POINT  CLEAR     35  33  94 CALM      30.01S
WAUPACA        CLEAR     41  40  96 CALM      30.01S
WAUTOMA        PTCLDY    36  35  96 CALM      30.03R
WISC RAPIDS    CLEAR     39  38  96 CALM      30.02S
CAMP DOUGLAS   CLEAR     39  39 100 E5        30.01S
$$

WIZ011>013-019>022-031-037>040-048>050-171200-
NORTHEAST WISCONSIN

CITY           SKY/WX    TMP DP  RH WIND       PRES   REMARKS
ANTIGO         CLEAR     37  37  99 CALM      29.99S
STURGEON BAY   CLEAR     48  43  81 SW8       29.99S
GREEN BAY      CLEAR     43  41  93 CALM      30.01S
MANITOWOC      CLEAR     48  44  86 W8        30.02R
APPLETON       PTCLDY    48  43  81 SW9       30.01
CLINTONVILLE   CLEAR     37  36  93 CALM      30.00S
OSHKOSH        CLEAR     46  42  86 SW6       30.01S
$$

WIZ032>034-041-042-053>061-171200-
SOUTHWEST WISCONSIN

CITY           SKY/WX    TMP DP  RH WIND       PRES   REMARKS
LA CROSSE      CLOUDY    49  46  90 SE6       30.00S
SPARTA         CLOUDY    37  37 100 CALM      30.01F
VIROQUA        CLOUDY    48  45  87 S5        30.00F
BOSCOBEL       FOG       46  44  93 CALM      30.04S VSB 1/4
PRAIRIE DU CHI FOG       43  42  96 CALM      30.02S VSB 3/4
PLATTEVILLE    FAIR      45  42  90 CALM      30.04S
$$

WIZ056-057-062-063-064-067-068-171200-
SOUTH CENTRAL WISCONSIN

CITY           SKY/WX    TMP DP  RH WIND       PRES   REMARKS
BARABOO/DELLS  CLEAR     43  41  95 CALM      30.02S
LONE ROCK      FOG       44  40  85 CALM      30.04S VSB 1/4
WATERTOWN      PTCLDY    38  38 100 CALM      30.03S
MADISON        PTCLDY    40  38  93 CALM      30.03S
MIDDLETON      FAIR      40  40 100 CALM      30.03F
MONROE         CLEAR     48  41  76 SW8       30.04S
JANESVILLE     CLEAR     43  41  93 CALM      30.04S
$$

WIZ051-052-058>065-066-070>072-171200-
SOUTHEAST WISCONSIN

CITY           SKY/WX    TMP DP  RH WIND       PRES   REMARKS
MILWAUKEE      PTCLDY    48  42  80 S3        30.04S
WAUKESHA       CLEAR     39  39 100 CALM      30.05R
MILWAUKEE/TIMM CLEAR     41  39  93 CALM      30.04S
RACINE         CLEAR     50  46  86 W5        30.05S
BURLINGTON     FOG       35  35 100 CALM      30.04S VSB 1/2
KENOSHA        FOG       43  43 100 SW3       30.05R VSB 1/4
FOND DU LAC    CLEAR     41  38  89 S3        30.03S
SHEBOYGAN      CLEAR     42  39  89 W3        30.02S
WEST BEND      CLEAR     37  37 100 CALM      30.03S
JUNEAU         MOCLDY    41  40  97 SE3       30.04S
$$

LSZ147-162-171200-
LAKE SUPERIOR

STATION/POSITION TIME  TEMP    WIND        PRES    WAVE
                       AIR SEA DIR/SP/G            HT/PER
                 (UTC) (F)     (DEG/KT/KT) (MB)    (FT/S)
W MID LAKE BUOY  1050   46 47  250/  4/  4 1012.6S   2/ 4
DEVILS ISLAND    1100   49     260/  2/  3 1013.6F
PORT WING        1040   47     190/  2/  4 1013.5S
SAXON HARBOR     1040   51     190/  5/  9 1013.5F
$$

LMZ867-665-643>646-171200-
LAKE MICHIGAN

STATION/POSITION TIME  TEMP    WIND        PRES    WAVE
                       AIR SEA DIR/SP/G            HT/PER
                 (UTC) (F)     (DEG/KT/KT) (MB)    (FT/S)
N MID LAKE BUOY  1050   57 58  250/ 12/ 14 1014.7R   2/ 5
NORTHPORT PIER   1000   53     240/  4/  7 1014.6F
KEWAUNEE LAKESHO 1100   47     310/  5/  6 1014.8F
SHEBOYGAN LAKESH 1100   49 51  250/ 10/ 11 1016.9F
PORT WASHINGTON  1040   48     260/  5/  6 1017.3F
ATWATER BUOY     1100   53     240/ 10/ 12 1017.9S
MILWAUKEE LAKESH 1100   53     260/  4/  6   N/A
S MID LAKE BUOY  1050   61 64  200/  8/ 12 1017.2F   1
KENOSHA   LAKESH 1100   50     260/  8/  9 1016.9S
$$

TC  - TEMPERATURE IN CELSIUS
VSB - VISIBILITY IN STATUTE MILES
WCI - WIND CHILL INDEX
HX  - HEAT INDEX



USA.gov is the U.S. government's official web portal to all federal, state and local government web resources and services.